Location: Unspecified
(0.0000°N, 0.0000°E)
Time: 21:46:05
(UTC+02:00)

ATLAS V CENTAUR R/B - Visible Passes

Search period start: 24 August 2016 00:00
Search period end: 03 September 2016 00:00
Orbit: 251 x 28578 km, 17.9° (Epoch: 24 August)

Date Brightness Start Highest point End Pass type
(mag) Time Alt. Az. Time Alt. Az. Time Alt. Az.
24 Aug 8.2 05:11:13 25° WNW 07:01:42 74° W 12:35:18 10° ESE visible
24 Aug 5.2 21:13:57 10° NNW 21:15:54 15° N 21:19:33 10° NE visible
25 Aug 7.6 06:03:59 12° WNW 07:55:29 58° W 13:30:29 10° ESE visible
25 Aug 5.9 22:07:59 10° NW 22:11:38 22° NNE 22:12:19 21° NNE visible
26 Aug 7.0 07:05:17 10° WNW 08:50:25 41° W 14:25:07 10° ESE visible
26 Aug 6.2 23:01:50 10° NW 23:31:46 14° ENE 05:41:48 10° ESE visible
27 Aug 7.0 23:55:41 10° NW 00:24:21 29° ENE 07:03:43 10° ESE visible
29 Aug 7.7 01:16:51 45° ENE 01:16:51 45° ENE 08:10:13 10° ESE visible
30 Aug 8.5 02:09:17 61° NE 02:09:17 61° NE 09:11:09 10° ESE visible
31 Aug 8.4 03:01:39 68° N 03:14:05 72° NNE 10:09:15 10° ESE visible
01 Sep 8.5 03:53:55 59° NW 05:52:30 85° ESE 11:05:39 10° ESE visible
02 Sep 8.5 04:46:07 44° WNW 06:18:46 78° W 12:00:56 10° ESE visible
02 Sep 5.3 20:40:35 10° N 20:41:25 11° NNE 20:42:28 10° NNE visible
